Location: Sungai Jaoh
(2.9167°N, 113.9167°E)
Time: 15:54:24
(UTC+00:00)

Ariane H10-3 - Pass Details

Date: 30 November 2020
Orbit: 323 x 24215 km, 7.6° (Epoch: 25 January)

Event Time Altitude Azimuth Distance (km) Brightness Sun altitude
Exits shadow 21:32:42 - 276° (W) 9,625 8.0 -10.5°
Reaches altitude 10° 21:35:48 10° 277° (W) 8,557 7.7 -9.8°
Maximum altitude 21:54:45 66° 357° (N) 1,192 3.9 -5.4°
Drops below altitude 10° 21:58:35 10° 81° (E) 1,931 6.2 -4.5°
Sets 21:59:54 0° 85° (E) 2,525 7.0 -4.2°
